[[{"header":{"parameterUnit":"m.s-1","parameterCategory":1,"la1":30.2991,"la2":30.254,"lo1":-89.0895,"lo2":-89.0444,"dy":0.0017,"dx":0.0017,"nx":28,"ny":28,"refTime":"2024-03-31T21:00:00:Z","depth":0,"parameterNumber":2,"parameterNumberName":"U-component_of_WINDS"},"data":[0,0,0,0,0,0,0,0,0,0,0,0,0,0,0,0,0,0,0,0,0,0,0,0,0,0,0,0,0,0,0,0,0,0,0,0,0,0,0,0,0,0,0,0,0,0,0,0,0,0,0,0,0,0,0,0,0,0,-2.7592,-2.7593,0,-2.7623,-2.7623,-2.7624,-2.7613,-2.7613,-2.7612,-2.7611,-2.7642,-2.7644,-2.7645,0,0,0,0,0,0,0,0,0,0,0,0,0,-2.7524,-2.7525,-2.7592,-2.7593,-2.7593,-2.7623,-2.7623,-2.7624,-2.7614,-2.7613,-2.7612,-2.7611,-2.7642,-2.7644,-2.7645,0,0,0,0,0,0,0,0,0,0,0,0,0,-2.7554,-2.7526,-2.7592,-2.7591,-2.7592,-2.7623,-2.7623,-2.7624,-2.7614,-2.7613,-2.7612,-2.7611,-2.7641,-2.7643,-2.7646,-2.7679,0,0,-2.7652,-2.7653,0,0,0,0,0,0,0,0,-2.7553,-2.7557,-2.7591,-2.7592,-2.7592,-2.7613,-2.7611,-2.7642,-2.7614,-2.7605,-2.7611,-2.761,-2.7633,-2.7636,-2.7644,-2.7681,-2.7682,-2.7652,-2.7654,-2.7655,-2.7655,0,0,0,0,0,0,0,-2.755,-2.7555,-2.7604,-2.7592,-2.7592,-2.759,-2.7593,-2.7617,-2.7625,-2.7606,-2.7605,-2.7609,-2.7633,-2.7642,-2.7645,-2.7682,-2.7652,-2.7654,-2.7656,-2.7656,-2.7747,-2.7748,0,0,0,0,0,0,-2.7548,-2.7554,-2.7603,-2.7605,-2.7569,-2.7592,-2.7595,-2.7607,-2.7624,-2.7626,-2.761,-2.7609,-2.7639,-2.7642,-2.7646,-2.7685,-2.7655,-2.7657,-2.7658,-2.7746,-2.7748,-2.7749,0,0,0,0,0,0,-2.7547,-2.7553,-2.7602,-2.7579,-2.7585,-2.7594,-2.7608,-2.7609,-2.7617,-2.7627,-2.7629,-2.7617,-2.7638,-2.7643,-2.7671,-2.7686,-2.7658,-2.766,-2.7745,-2.7747,-2.7748,-2.7765,0,0,0,0,0,0,-2.7545,-2.7552,-2.7565,-2.758,-2.7587,-2.7627,-2.7609,-2.761,-2.7621,-2.7619,-2.7635,-2.7636,-2.7638,-2.7668,-2.7673,-2.7689,-2.7661,-2.7743,-2.7746,-2.7748,-2.7763,-2.7767,-2.777,0,0,0,0,0,-2.7543,-2.7569,-2.7566,-2.7572,-2.7603,-2.7627,-2.7631,-2.7633,-2.7622,-2.7635,-2.7642,-2.7636,-2.7684,-2.7671,-2.7677,-2.7693,-2.7742,-2.7745,-2.7747,-2.7761,-2.7766,-2.777,0,0,0,0,0,0,-2.7555,-2.757,-2.7567,-2.7599,-2.7612,-2.7626,-2.7642,-2.7638,-2.7654,-2.7652,-2.7653,-2.7657,-2.7685,-2.7693,-2.7677,-2.7726,-2.7712,-2.7716,-2.772,-2.7725,-2.7729,-2.7725,-2.7663,0,0,0,0,0,-2.7562,-2.7581,-2.7593,-2.762,-2.7626,-2.7633,-2.7644,-2.7644,-2.7658,-2.7663,-2.7672,-2.7685,-2.7703,-2.7715,-2.7732,-2.7765,-2.7767,-2.7779,-2.7783,-2.7786,-2.7788,-2.7805,-2.7811,-2.7757,-2.7757,-2.7757,0,0,-2.7575,-2.7586,-2.7598,-2.7622,-2.7632,-2.7652,-2.7638,-2.7659,-2.7673,-2.7666,-2.7692,-2.77,-2.7714,-2.7745,-2.7759,-2.7751,-2.7804,-2.7789,-2.7791,-2.7792,-2.7809,-2.7814,-2.7818,-2.7759,-2.7758,-2.7758,0,0,-2.7609,-2.762,-2.7642,-2.7653,-2.7669,-2.7673,-2.7679,-2.7693,-2.7697,-2.7724,-2.772,-2.7737,-2.7768,-2.7779,-2.7788,-2.7827,-2.7822,-2.7833,-2.7851,-2.7868,-2.7872,-2.7876,-2.7889,-2.7893,-2.7836,-2.7836,-2.7836,0,-2.7623,-2.7652,-2.7655,-2.7676,-2.7687,-2.7682,-2.7705,-2.7715,-2.7736,-2.7743,-2.7736,-2.7775,-2.7785,-2.7817,-2.7827,-2.7835,-2.7841,-2.783,-2.7872,-2.7875,-2.7879,-2.7891,-2.7896,-2.7837,-2.7837,-2.7837,-2.7837,0,-2.7668,-2.7689,-2.7705,-2.7725,-2.7738,-2.776,-2.7766,-2.7779,-2.7779,-2.7784,-2.7811,-2.7823,-2.7842,-2.7851,-2.7851,-2.7883,-2.7878,-2.7871,-2.7856,-2.7885,-2.7896,-2.7901,-2.7839,-2.7839,-2.7838,-2.7838,0,0,-2.7709,-2.7731,-2.7737,-2.7745,-2.7763,-2.7778,-2.7801,-2.782,-2.783,-2.7845,-2.7863,-2.789,-2.7884,-2.7895,-2.7896,-2.7911,-2.794,-2.7902,-2.7903,-2.7907,-2.7975,-2.7979,-2.7984,-2.7937,-2.7938,-2.7939,-2.7973,0,-2.7743,-2.7781,-2.7785,-2.7819,-2.7837,-2.7834,-2.7853,-2.7866,-2.7872,-2.7888,-2.7895,-2.7914,-2.7905,-2.7911,-2.7926,-2.7933,-2.7953,-2.7931,-2.7953,-2.7954,-2.7947,-2.799,-2.7994,-2.8025,-2.7978,-2.7979,-2.7979,0,-2.7787,-2.7803,-2.7839,-2.7854,-2.7862,-2.7879,-2.7896,-2.7912,-2.7927,-2.793,-2.7943,-2.7942,-2.7965,-2.7951,-2.7982,-2.7967,-2.7976,-2.7981,-2.7983,-2.7983,-2.7966,-2.799,-2.8036,-2.804,-2.7986,-2.7986,-2.7985,0,-2.7811,-2.7842,-2.7867,-2.7875,-2.7893,-2.7905,-2.7913,-2.7927,-2.7938,-2.7954,-2.7962,-2.798,-2.799,-2.8004,-2.8009,-2.7998,-2.8039,-2.8026,-2.8041,-2.8041,-2.8048,-2.8047,-2.8094,-2.8058,-2.8058,-2.8058,-2.8058,0,-2.7847,-2.7869,-2.7878,-2.7893,-2.7918,-2.7922,-2.7946,-2.7953,-2.7966,-2.7983,-2.7982,-2.7998,-2.8004,-2.802,-2.8024,-2.8048,-2.8053,-2.8056,-2.8056,-2.8055,-2.8054,-2.806,-2.8057,-2.8059,-2.8059,-2.8059,-2.8058,0,-2.7877,-2.7884,-2.7911,-2.7926,-2.7931,-2.7948,-2.7961,-2.7976,-2.7982,-2.8004,-2.8009,-2.8019,-2.8038,-2.8045,-2.8069,-2.8072,-2.8099,-2.8099,-2.8094,-2.8094,-2.8109,-2.8106,-2.8159,-2.8166,-2.8127,-2.8127,-2.8127,0,-2.7898,-2.7915,-2.7932,-2.7943,-2.7952,-2.797,-2.7982,-2.7987,-2.7999,-2.8017,-2.803,-2.805,-2.8065,-2.8097,-2.8106,-2.8125,-2.8123,-2.8141,-2.8126,-2.8124,-2.8122,-2.812,-2.8121,-2.8143,-2.8143,-2.8143,-2.8144,0,-2.7935,-2.7938,-2.7955,-2.7973,-2.7987,-2.8001,-2.8015,-2.8025,-2.8032,-2.8046,-2.8066,-2.8078,-2.8103,-2.8122,-2.8141,-2.815,-2.8147,-2.8149,-2.8153,-2.815,-2.8146,-2.8147,-2.8099,-2.8147,-2.8146,-2.8146,-2.8146,-2.8146,-2.796,-2.7975,-2.7989,-2.8008,-2.8019,-2.8032,-2.8047,-2.8055,-2.8072,-2.8092,-2.8095,-2.8116,-2.8131,-2.8156,-2.8166,-2.8182,-2.8177,-2.8184,-2.8185,-2.8187,-2.8187,-2.8145,-2.8186,-2.8186,-2.8186,-2.8186,-2.8186,0,-2.7996,-2.8005,-2.8022,-2.8042,-2.8056,-2.8055,-2.807,-2.8082,-2.8101,-2.8115,-2.8131,-2.8154,-2.8173,-2.8184,-2.8203,-2.8214,-2.8214,-2.8219,-2.8217,-2.8219,-2.8191,-2.8184,-2.8219,-2.8219,-2.8219,-2.8219,-2.8219,-2.8219,-2.8016,-2.8039,-2.8044,-2.8074,-2.8083,-2.8104,-2.8113,-2.8125,-2.8136,-2.8162,-2.8177,-2.8185,-2.8198,-2.8218,-2.8235,-2.8238,-2.8244,-2.8249,-2.8251,-2.8225,-2.8221,-2.8218,-2.8211,-2.8251,-2.8251,-2.8278,-2.8278,-2.8278]},{"header":{"parameterUnit":"m.s-1","parameterCategory":1,"la1":30.2991,"la2":30.254,"lo1":-89.0895,"lo2":-89.0444,"dy":0.0017,"dx":0.0017,"nx":28,"ny":28,"refTime":"2024-03-31T21:00:00:Z","depth":0,"parameterNumber":3,"parameterNumberName":"V-component_of_WINDS"},"data":[0,0,0,0,0,0,0,0,0,0,0,0,0,0,0,0,0,0,0,0,0,0,0,0,0,0,0,0,0,0,0,0,0,0,0,0,0,0,0,0,0,0,0,0,0,0,0,0,0,0,0,0,0,0,0,0,0,0,3.6553,3.6555,0,3.6695,3.6696,3.6698,3.6735,3.6734,3.6733,3.6732,3.6874,3.6879,3.6883,0,0,0,0,0,0,0,0,0,0,0,0,0,3.6315,3.6319,3.6553,3.6555,3.6557,3.6694,3.6696,3.6698,3.6735,3.6734,3.6733,3.6732,3.6873,3.6878,3.6884,0,0,0,0,0,0,0,0,0,0,0,0,0,3.6434,3.6321,3.6553,3.6592,3.6597,3.6694,3.6696,3.6699,3.6735,3.6734,3.6733,3.6732,3.6871,3.6878,3.6885,3.6952,0,0,3.6905,3.6908,0,0,0,0,0,0,0,0,3.6427,3.6442,3.6584,3.6589,3.6595,3.6696,3.6665,3.6784,3.6736,3.6683,3.6732,3.6731,3.6816,3.6827,3.6856,3.6959,3.6965,3.6906,3.691,3.6913,3.6915,0,0,0,0,0,0,0,3.6419,3.6436,3.6609,3.6586,3.6593,3.6602,3.6618,3.6687,3.6755,3.6687,3.669,3.6707,3.6818,3.685,3.686,3.6967,3.6906,3.6912,3.6916,3.6919,3.7136,3.7138,0,0,0,0,0,0,3.6404,3.6429,3.6605,3.6613,3.6506,3.6608,3.6625,3.6665,3.6754,3.6766,3.6707,3.6708,3.6839,3.6852,3.6865,3.6953,3.6913,3.692,3.6923,3.7134,3.7136,3.7138,0,0,0,0,0,0,3.6399,3.6419,3.6599,3.6522,3.6546,3.6613,3.6658,3.6668,3.67,3.6769,3.6781,3.6727,3.6838,3.6855,3.6931,3.6958,3.6923,3.6929,3.7132,3.7135,3.7137,3.7127,0,0,0,0,0,0,3.6392,3.6417,3.6443,3.6523,3.655,3.6663,3.6659,3.6672,3.6712,3.6713,3.6791,3.6802,3.6838,3.6921,3.6938,3.6967,3.6934,3.713,3.7134,3.7137,3.7126,3.7129,3.7132,0,0,0,0,0,3.6383,3.6434,3.6444,3.6465,3.6584,3.6664,3.668,3.6721,3.6713,3.6741,3.6786,3.68,3.6952,3.6928,3.6948,3.6979,3.7129,3.7133,3.7136,3.7124,3.7129,3.7132,0,0,0,0,0,0,3.6354,3.6445,3.6458,3.6535,3.6592,3.667,3.6706,3.6724,3.6783,3.6782,3.683,3.6847,3.692,3.6957,3.6929,3.7052,3.7041,3.7049,3.7025,3.703,3.7033,3.7023,3.694,0,0,0,0,0,3.6357,3.6415,3.649,3.6552,3.658,3.6638,3.6674,3.6701,3.6762,3.6785,3.6836,3.6894,3.6955,3.6994,3.7054,3.7131,3.715,3.7163,3.7166,3.7168,3.7175,3.7221,3.7229,3.7151,3.715,3.715,0,0,3.6363,3.642,3.6453,3.6548,3.6595,3.6654,3.6658,3.6719,3.6764,3.6794,3.687,3.691,3.6977,3.7055,3.7091,3.7088,3.7201,3.7173,3.7174,3.718,3.7226,3.7233,3.724,3.7153,3.7153,3.7152,0,0,3.6405,3.6453,3.6511,3.6558,3.6631,3.6669,3.6683,3.676,3.6788,3.6865,3.689,3.6944,3.7047,3.7095,3.7133,3.7197,3.7212,3.7215,3.7232,3.7277,3.7283,3.7289,3.7314,3.7322,3.7221,3.7221,3.7221,0,3.6403,3.6494,3.6538,3.66,3.6641,3.6674,3.6733,3.6777,3.6864,3.6893,3.6888,3.7021,3.7068,3.7159,3.7175,3.7204,3.7222,3.7206,3.7279,3.7285,3.7291,3.7315,3.7324,3.7221,3.7221,3.7221,3.7221,0,3.6489,3.6552,3.659,3.6676,3.6722,3.6782,3.6836,3.6877,3.6901,3.694,3.702,3.7078,3.7152,3.7175,3.7198,3.727,3.7266,3.7269,3.726,3.7298,3.7322,3.7331,3.7221,3.7221,3.7221,3.7221,0,0,3.6516,3.6627,3.6641,3.6682,3.6765,3.6814,3.6876,3.695,3.6986,3.7045,3.71,3.7188,3.7193,3.7236,3.7265,3.7304,3.7354,3.7303,3.7305,3.7312,3.744,3.7438,3.7448,3.7364,3.7366,3.7368,3.7435,0,3.6569,3.6683,3.6726,3.6819,3.6879,3.6912,3.6966,3.7024,3.7063,3.7119,3.7162,3.7225,3.7225,3.7252,3.7292,3.7339,3.738,3.7335,3.7417,3.7419,3.74,3.746,3.7458,3.7519,3.7444,3.7446,3.7447,0,3.6647,3.671,3.681,3.6889,3.6915,3.6964,3.7037,3.709,3.7156,3.7182,3.7232,3.7259,3.7326,3.7312,3.7407,3.7375,3.7411,3.744,3.7443,3.7453,3.7436,3.7474,3.7539,3.7548,3.7462,3.7461,3.7459,0,3.6659,3.6769,3.6843,3.6877,3.697,3.7004,3.7044,3.7109,3.7152,3.7215,3.7244,3.7313,3.7351,3.7405,3.7451,3.7436,3.7542,3.7531,3.7567,3.7566,3.7588,3.7586,3.7661,3.7609,3.7608,3.7608,3.7608,0,3.6716,3.6776,3.6851,3.6897,3.6966,3.7015,3.7082,3.7124,3.7182,3.7238,3.7269,3.732,3.7377,3.7435,3.7471,3.7546,3.7562,3.7586,3.7595,3.7584,3.7581,3.7609,3.7607,3.7611,3.761,3.761,3.7609,0,3.6741,3.6793,3.6877,3.696,3.6982,3.7029,3.71,3.7146,3.7188,3.7258,3.7277,3.7342,3.7413,3.7464,3.7554,3.7579,3.766,3.7667,3.7638,3.7643,3.7676,3.7673,3.7773,3.779,3.7724,3.7724,3.7725,0,3.6774,3.6822,3.691,3.695,3.6991,3.7055,3.7099,3.715,3.7195,3.7276,3.7313,3.7386,3.7448,3.756,3.7616,3.7686,3.7697,3.7727,3.7708,3.7696,3.77,3.7698,3.7704,3.773,3.7731,3.7731,3.7732,0,3.6829,3.6853,3.6916,3.699,3.7042,3.7102,3.7162,3.7193,3.7254,3.7303,3.7378,3.7426,3.752,3.7594,3.767,3.7712,3.7733,3.7737,3.775,3.774,3.7722,3.7735,3.7648,3.7735,3.7735,3.7734,3.7734,3.7734,3.6861,3.6906,3.6976,3.7046,3.7097,3.7153,3.7202,3.7251,3.7314,3.7396,3.7421,3.7499,3.7567,3.7672,3.7715,3.7776,3.7775,3.7792,3.7797,3.7801,3.7802,3.7711,3.779,3.779,3.779,3.779,3.779,0,3.6919,3.6966,3.703,3.7115,3.7171,3.7186,3.7255,3.73,3.7368,3.743,3.7491,3.7578,3.765,3.7712,3.7787,3.7824,3.7836,3.7842,3.7841,3.7851,3.7797,3.778,3.7832,3.7832,3.7832,3.7832,3.7832,3.7832,3.6956,3.7034,3.7067,3.7171,3.7218,3.7295,3.7333,3.7386,3.7436,3.7532,3.7592,3.7633,3.7695,3.7776,3.7843,3.7859,3.7886,3.7891,3.791,3.7859,3.7854,3.7849,3.7834,3.7896,3.7896,3.7959,3.7959,3.7959]}]]